Falls City, NE

6:42 AM CST on February 19, 2017 (GMT -0600)
Brenner

Weather History for KFNB - November, 2011

Change the Weather History Date:

Saturday, November 26, 2011

  Actual Average Record
Temperature  
Mean Temperature 46 °F -  
Max Temperature 54 °F 45 °F 67 °F (1949)
Min Temperature 37 °F 28 °F 5 °F (1993)
Degree Days  
Heating Degree Days 20    
Moisture  
Dew Point 38 °F    
Average Humidity 78    
Maximum Humidity 100    
Minimum Humidity 60    
Precipitation  
Precipitation 0.09 in - - ()
Sea Level Pressure  
Sea Level Pressure 29.98 in    
Wind  
Wind Speed 13 mph (NNW)    
Max Wind Speed 22 mph    
Max Gust Speed 39 mph    
Visibility 10 miles    
Events Rain    
Averages and records for this station are not official NWS values.
T = Trace of Precipitation, MM = Missing Value Source: NWS Daily Summary

Daily Weather History Graph

Daily Weather History Graph

Search for Another Location

Airport or City:

Trip Planner

Search our weather history database for the weather conditions in past years. The results will help you decide how hot, cold, wet, or windy it might be!

Date:

Astronomy

Nov. 26, 2011 Rise Set
Actual Time 7:19 AM CST 4:59 PM CST
Civil Twilight 6:50 AM CST 5:28 PM CST
Nautical Twilight 6:16 AM CST 6:02 PM CST
Astronomical Twilight 5:44 AM CST 6:34 PM CST
Moon 8:51 AM CST (11/26) 6:31 PM CST (11/26)
Length of Visible Light 10h 38m
Length of Day
9h 39m
Waxing Crescent, 3% of the Moon is Illuminated
Nov 26
Waxing Crescent
Dec 2
First Quarter
Dec 10
Full
Dec 17
Last Quarter
Dec 24
New

Hourly Weather History & Observations

Time (CST) Temp. Windchill Dew Point Humidity Pressure Visibility Wind Dir Wind Speed Gust Speed Precip Events Conditions
12:53 AM 54.0 °F - 52.0 °F 93% 29.75 in 10.0 mi WSW 9.2 mph - 0.02 in Rain Light Rain
1:53 AM 53.1 °F - 52.0 °F 96% 29.73 in 10.0 mi South 8.1 mph - 0.02 in Rain Light Rain
2:53 AM 53.1 °F - 52.0 °F 96% 29.72 in 10.0 mi South 10.4 mph - 0.00 in   Overcast
3:46 AM 53.6 °F - 51.8 °F 94% 29.76 in 10.0 mi WNW 9.2 mph 17.3 mph 0.00 in Rain Light Rain
3:53 AM 53.1 °F - 52.0 °F 96% 29.76 in 10.0 mi NW 8.1 mph - 0.00 in Rain Light Rain
4:03 AM 53.6 °F - 51.8 °F 94% 29.77 in 9.0 mi NW 5.8 mph - 0.01 in Rain Light Rain
4:53 AM 50.0 °F - 46.0 °F 86% 29.81 in 10.0 mi NW 10.4 mph 18.4 mph 0.02 in Rain Light Rain
5:25 AM 46.4 °F 39.5 °F 44.6 °F 93% 29.82 in 10.0 mi NNW 17.3 mph 23.0 mph 0.01 in Rain Light Rain
5:53 AM 43.0 °F 36.0 °F 43.0 °F 100% 29.85 in 10.0 mi NNW 13.8 mph 24.2 mph 0.02 in Rain Light Rain
6:53 AM 42.1 °F 35.2 °F 41.0 °F 96% 29.89 in 10.0 mi NW 12.7 mph 25.3 mph 0.01 in Rain Light Rain
7:28 AM 41.0 °F 32.5 °F 39.2 °F 93% 29.92 in 10.0 mi NNW 17.3 mph 28.8 mph 0.00 in Rain Light Rain
7:53 AM 39.9 °F 31.4 °F 36.0 °F 86% 29.93 in 10.0 mi NNW 16.1 mph 26.5 mph 0.00 in   Overcast
8:53 AM 39.9 °F 30.5 °F 36.0 °F 86% 29.95 in 10.0 mi NNW 19.6 mph 28.8 mph N/A   Overcast
9:53 AM 39.9 °F 31.1 °F 35.1 °F 83% 29.99 in 10.0 mi NNW 17.3 mph 29.9 mph N/A   Overcast
10:53 AM 41.0 °F 33.9 °F 36.0 °F 82% 30.02 in 10.0 mi NNW 12.7 mph 25.3 mph N/A   Overcast
11:53 AM 43.0 °F 34.5 °F 35.1 °F 74% 30.01 in 10.0 mi NNW 19.6 mph 38.0 mph N/A   Overcast
12:22 PM 44.6 °F 36.1 °F 33.8 °F 66% 29.99 in 10.0 mi North 21.9 mph 35.7 mph N/A   Scattered Clouds
12:53 PM 46.0 °F 39.6 °F 36.0 °F 68% 30.01 in 10.0 mi NNW 15.0 mph 27.6 mph N/A   Mostly Cloudy
1:53 PM 46.0 °F 38.0 °F 35.1 °F 66% 30.01 in 10.0 mi NNW 21.9 mph 29.9 mph N/A   Overcast
2:53 PM 45.0 °F 36.9 °F 33.1 °F 63% 30.05 in 10.0 mi NNW 20.7 mph 39.1 mph N/A   Overcast
3:53 PM 45.0 °F 37.1 °F 32.0 °F 60% 30.08 in 10.0 mi NNW 19.6 mph 32.2 mph N/A   Overcast
4:53 PM 44.1 °F 36.2 °F 30.9 °F 60% 30.12 in 10.0 mi NNW 18.4 mph 25.3 mph N/A   Overcast
5:53 PM 41.0 °F 32.8 °F 28.0 °F 60% 30.15 in 10.0 mi NNW 16.1 mph 27.6 mph N/A   Mostly Cloudy
6:53 PM 39.0 °F 31.0 °F 28.0 °F 65% 30.19 in 10.0 mi NNW 13.8 mph - N/A   Clear
7:53 PM 37.9 °F 28.5 °F 26.1 °F 62% 30.21 in 10.0 mi NNW 17.3 mph 26.5 mph N/A   Clear
8:53 PM 37.0 °F 28.9 °F 25.0 °F 62% 30.20 in 10.0 mi NNW 12.7 mph 20.7 mph N/A   Clear
9:53 PM 37.4 °F 30.3 °F 26.6 °F 65% 30.18 in 10.0 mi NNW 10.4 mph - N/A   Mostly Cloudy
10:53 PM 37.9 °F 28.2 °F 26.1 °F 62% 30.21 in 10.0 mi NNW 18.4 mph 28.8 mph N/A   Overcast
11:53 PM 37.9 °F 30.0 °F 26.1 °F 62% 30.22 in 10.0 mi NNW 12.7 mph 21.9 mph N/A   Overcast